[[{"header":{"parameterUnit":"m.s-1","parameterCategory":1,"la1":30.2991,"la2":30.254,"lo1":-89.0895,"lo2":-89.0444,"dy":0.0017,"dx":0.0017,"nx":28,"ny":28,"refTime":"2024-02-14T09:00:00:Z","depth":0,"parameterNumber":2,"parameterNumberName":"U-component_of_WINDS"},"data":[0,0,0,0,0,0,0,0,0,0,0,0,0,0,0,0,0,0,0,0,0,0,0,0,0,0,0,0,0,0,0,0,0,0,0,0,0,0,0,0,0,0,0,0,0,0,0,0,0,0,0,0,0,0,0,0,0,0,-1.6536,-1.6537,0,-1.6597,-1.6597,-1.6598,-1.6597,-1.6596,-1.6596,-1.6595,-1.6656,-1.6659,-1.6661,0,0,0,0,0,0,0,0,0,0,0,0,0,-1.6419,-1.6421,-1.6536,-1.6537,-1.6538,-1.6596,-1.6597,-1.6598,-1.6597,-1.6596,-1.6595,-1.6594,-1.6656,-1.6658,-1.6661,0,0,0,0,0,0,0,0,0,0,0,0,0,-1.6474,-1.6422,-1.6536,-1.6544,-1.6546,-1.6596,-1.6597,-1.6598,-1.6597,-1.6596,-1.6595,-1.6594,-1.6655,-1.6658,-1.6662,-1.6708,0,0,-1.6673,-1.6674,0,0,0,0,0,0,0,0,-1.6471,-1.6478,-1.6542,-1.6544,-1.6545,-1.6588,-1.6579,-1.6635,-1.6598,-1.6578,-1.6595,-1.6593,-1.6635,-1.664,-1.6654,-1.6711,-1.6714,-1.6673,-1.6675,-1.6677,-1.6678,0,0,0,0,0,0,0,-1.6467,-1.6475,-1.656,-1.6543,-1.6545,-1.6545,-1.6551,-1.6589,-1.6612,-1.6579,-1.658,-1.6587,-1.6635,-1.665,-1.6655,-1.6714,-1.6673,-1.6676,-1.6678,-1.668,-1.6811,-1.6812,0,0,0,0,0,0,-1.6461,-1.6472,-1.6558,-1.6562,-1.6504,-1.6548,-1.6555,-1.6576,-1.6612,-1.6616,-1.6588,-1.6586,-1.6645,-1.6651,-1.6657,-1.6713,-1.6677,-1.668,-1.6682,-1.681,-1.6811,-1.6813,0,0,0,0,0,0,-1.6459,-1.6469,-1.6556,-1.6517,-1.6528,-1.6551,-1.6574,-1.6577,-1.6592,-1.6618,-1.6622,-1.6599,-1.6644,-1.6652,-1.6695,-1.6715,-1.6682,-1.6685,-1.6808,-1.681,-1.6812,-1.6825,0,0,0,0,0,0,-1.6456,-1.6468,-1.6486,-1.6518,-1.653,-1.6593,-1.6575,-1.6579,-1.6599,-1.6598,-1.663,-1.6634,-1.6644,-1.669,-1.6699,-1.6719,-1.6688,-1.6807,-1.6809,-1.6812,-1.6823,-1.6827,-1.6831,0,0,0,0,0,-1.6451,-1.6488,-1.6487,-1.6498,-1.6553,-1.6594,-1.6601,-1.6612,-1.66,-1.6618,-1.6635,-1.6633,-1.6712,-1.6694,-1.6704,-1.6726,-1.6805,-1.6808,-1.6811,-1.6821,-1.6826,-1.6831,0,0,0,0,0,0,-1.6458,-1.6492,-1.6492,-1.6539,-1.6564,-1.6594,-1.6617,-1.6617,-1.6645,-1.6643,-1.6655,-1.6663,-1.6705,-1.672,-1.67,-1.6772,-1.6757,-1.6762,-1.6761,-1.6766,-1.677,-1.6765,-1.6691,0,0,0,0,0,-1.6465,-1.6496,-1.6523,-1.6563,-1.6575,-1.6594,-1.6612,-1.6618,-1.6644,-1.6654,-1.6674,-1.6698,-1.6729,-1.6748,-1.6778,-1.6825,-1.6832,-1.6845,-1.6849,-1.6852,-1.6857,-1.6882,-1.6888,-1.6823,-1.6823,-1.6823,0,0,-1.648,-1.6502,-1.6521,-1.6565,-1.6584,-1.6615,-1.6602,-1.6636,-1.6658,-1.6659,-1.67,-1.6716,-1.6744,-1.6789,-1.681,-1.6803,-1.6876,-1.6856,-1.6859,-1.6861,-1.6885,-1.6891,-1.6897,-1.6825,-1.6825,-1.6824,0,0,-1.6523,-1.6543,-1.6578,-1.6597,-1.6627,-1.6639,-1.6647,-1.6677,-1.6687,-1.6729,-1.673,-1.6757,-1.6809,-1.6829,-1.6846,-1.6895,-1.6894,-1.6904,-1.6925,-1.6949,-1.6954,-1.6959,-1.6976,-1.6981,-1.6909,-1.6909,-1.6909,0,-1.6538,-1.6584,-1.6595,-1.6628,-1.6647,-1.6649,-1.6683,-1.6702,-1.674,-1.6753,-1.6744,-1.6809,-1.6828,-1.6878,-1.6889,-1.6904,-1.6913,-1.6901,-1.6953,-1.6958,-1.6962,-1.6978,-1.6984,-1.691,-1.6909,-1.6909,-1.6909,0,-1.66,-1.6632,-1.6657,-1.6693,-1.6714,-1.6748,-1.6764,-1.6784,-1.6788,-1.6801,-1.6843,-1.6866,-1.69,-1.6912,-1.6917,-1.6962,-1.6956,-1.695,-1.6935,-1.6969,-1.6984,-1.699,-1.6911,-1.6911,-1.691,-1.691,0,0,-1.6649,-1.669,-1.6699,-1.6715,-1.6748,-1.6772,-1.6806,-1.6839,-1.6855,-1.6881,-1.6909,-1.6953,-1.6947,-1.6966,-1.6973,-1.6995,-1.7031,-1.6986,-1.6987,-1.6993,-1.708,-1.7084,-1.7091,-1.703,-1.7032,-1.7033,-1.7078,0,-1.6695,-1.6754,-1.6765,-1.6816,-1.6846,-1.6847,-1.6876,-1.6899,-1.6912,-1.6938,-1.6952,-1.6983,-1.6974,-1.6985,-1.7006,-1.7022,-1.7048,-1.7019,-1.7056,-1.7057,-1.7048,-1.7099,-1.7103,-1.7145,-1.7084,-1.7085,-1.7086,0,-1.6756,-1.6783,-1.6837,-1.6865,-1.6878,-1.6903,-1.6934,-1.6959,-1.6985,-1.6992,-1.7013,-1.7017,-1.7051,-1.7035,-1.7082,-1.7061,-1.7077,-1.7087,-1.7088,-1.7092,-1.7073,-1.7103,-1.7158,-1.7164,-1.7095,-1.7094,-1.7094,0,-1.6785,-1.6835,-1.6874,-1.6887,-1.6921,-1.6939,-1.6954,-1.6978,-1.6997,-1.7023,-1.7035,-1.7065,-1.7081,-1.7104,-1.7116,-1.7103,-1.7161,-1.7146,-1.7168,-1.7168,-1.718,-1.7179,-1.7238,-1.7191,-1.7191,-1.7191,-1.7191,0,-1.6834,-1.6867,-1.6887,-1.6911,-1.6948,-1.6959,-1.6995,-1.7009,-1.7031,-1.7057,-1.7061,-1.7085,-1.7099,-1.7126,-1.7135,-1.7172,-1.7179,-1.7186,-1.7188,-1.7185,-1.7184,-1.7195,-1.7192,-1.7193,-1.7192,-1.7192,-1.7192,0,-1.6873,-1.6887,-1.693,-1.6958,-1.6965,-1.6991,-1.7015,-1.7038,-1.705,-1.7083,-1.7091,-1.7111,-1.7142,-1.7156,-1.7195,-1.7201,-1.7242,-1.7243,-1.7233,-1.7234,-1.7255,-1.7252,-1.7322,-1.7331,-1.7279,-1.728,-1.728,0,-1.6903,-1.6928,-1.6959,-1.6976,-1.6992,-1.702,-1.7039,-1.7051,-1.707,-1.7101,-1.712,-1.7151,-1.7176,-1.7226,-1.7243,-1.7272,-1.7273,-1.7295,-1.7277,-1.7273,-1.7272,-1.727,-1.7272,-1.7298,-1.7299,-1.7299,-1.73,0,-1.6954,-1.696,-1.6987,-1.7017,-1.7039,-1.7063,-1.7086,-1.71,-1.7116,-1.7137,-1.7169,-1.7189,-1.7228,-1.7258,-1.7288,-1.7303,-1.7304,-1.7305,-1.7312,-1.7309,-1.7302,-1.7305,-1.7241,-1.7303,-1.7303,-1.7303,-1.7303,-1.7302,-1.6989,-1.7011,-1.7036,-1.7066,-1.7084,-1.7106,-1.7128,-1.7143,-1.717,-1.7202,-1.7208,-1.7241,-1.7265,-1.7305,-1.7321,-1.7347,-1.7342,-1.7351,-1.7354,-1.7356,-1.7356,-1.7298,-1.7353,-1.7353,-1.7353,-1.7353,-1.7352,0,-1.704,-1.7056,-1.7083,-1.7115,-1.7139,-1.7137,-1.7163,-1.7182,-1.7211,-1.7234,-1.7258,-1.7294,-1.7323,-1.7343,-1.7372,-1.7389,-1.739,-1.7396,-1.7395,-1.7398,-1.736,-1.7351,-1.7395,-1.7395,-1.7395,-1.7395,-1.7395,-1.7395,-1.707,-1.7107,-1.7115,-1.7161,-1.7177,-1.7209,-1.7224,-1.7243,-1.7261,-1.7301,-1.7325,-1.7337,-1.7358,-1.7389,-1.7415,-1.742,-1.7431,-1.7437,-1.7441,-1.7405,-1.7401,-1.7397,-1.7388,-1.7439,-1.7439,-1.7477,-1.7478,-1.7478]},{"header":{"parameterUnit":"m.s-1","parameterCategory":1,"la1":30.2991,"la2":30.254,"lo1":-89.0895,"lo2":-89.0444,"dy":0.0017,"dx":0.0017,"nx":28,"ny":28,"refTime":"2024-02-14T09:00:00:Z","depth":0,"parameterNumber":3,"parameterNumberName":"V-component_of_WINDS"},"data":[0,0,0,0,0,0,0,0,0,0,0,0,0,0,0,0,0,0,0,0,0,0,0,0,0,0,0,0,0,0,0,0,0,0,0,0,0,0,0,0,0,0,0,0,0,0,0,0,0,0,0,0,0,0,0,0,0,0,-0.7987,-0.7987,0,-0.7997,-0.7997,-0.7997,-0.7983,-0.7983,-0.7982,-0.7982,-0.7993,-0.7994,-0.7995,0,0,0,0,0,0,0,0,0,0,0,0,0,-0.7957,-0.7957,-0.7987,-0.7987,-0.7987,-0.7997,-0.7997,-0.7997,-0.7983,-0.7983,-0.7982,-0.7982,-0.7993,-0.7994,-0.7995,0,0,0,0,0,0,0,0,0,0,0,0,0,-0.7968,-0.7957,-0.7987,-0.7981,-0.7981,-0.7996,-0.7997,-0.7997,-0.7983,-0.7983,-0.7982,-0.7981,-0.7993,-0.7994,-0.7995,-0.8017,0,0,-0.7998,-0.7999,0,0,0,0,0,0,0,0,-0.7968,-0.797,-0.7982,-0.7982,-0.7981,-0.7988,-0.799,-0.8004,-0.7984,-0.7982,-0.7982,-0.7981,-0.7992,-0.7993,-0.7997,-0.8017,-0.8018,-0.7998,-0.7999,-0.8,-0.8,0,0,0,0,0,0,0,-0.7967,-0.7969,-0.7991,-0.7982,-0.7982,-0.7979,-0.7979,-0.7993,-0.7991,-0.7983,-0.7982,-0.7983,-0.7992,-0.7996,-0.7997,-0.8018,-0.7998,-0.7999,-0.8,-0.8001,-0.8056,-0.8057,0,0,0,0,0,0,-0.7967,-0.7968,-0.799,-0.7991,-0.7973,-0.798,-0.7981,-0.7986,-0.7991,-0.7991,-0.7983,-0.7982,-0.7994,-0.7996,-0.7997,-0.8022,-0.8,-0.8001,-0.8001,-0.8055,-0.8056,-0.8057,0,0,0,0,0,0,-0.7966,-0.7969,-0.799,-0.7979,-0.7982,-0.7981,-0.7988,-0.7987,-0.7991,-0.7992,-0.7992,-0.7988,-0.7994,-0.7996,-0.8012,-0.8023,-0.8001,-0.8002,-0.8054,-0.8055,-0.8056,-0.8073,0,0,0,0,0,0,-0.7965,-0.7969,-0.7977,-0.798,-0.7982,-0.8004,-0.7988,-0.7988,-0.7993,-0.7991,-0.7996,-0.7996,-0.7993,-0.801,-0.8013,-0.8024,-0.8003,-0.8053,-0.8055,-0.8056,-0.8072,-0.8075,-0.8078,0,0,0,0,0,-0.7964,-0.7982,-0.7977,-0.798,-0.7993,-0.8005,-0.8006,-0.8002,-0.7994,-0.8002,-0.8002,-0.7996,-0.8021,-0.8012,-0.8015,-0.8026,-0.8052,-0.8054,-0.8056,-0.807,-0.8074,-0.8077,0,0,0,0,0,0,-0.7981,-0.7982,-0.7977,-0.7996,-0.8,-0.8002,-0.8012,-0.8007,-0.8014,-0.8012,-0.8008,-0.8009,-0.8026,-0.8028,-0.8017,-0.8047,-0.8035,-0.8038,-0.8045,-0.8049,-0.8052,-0.8051,-0.8004,0,0,0,0,0,-0.7986,-0.7996,-0.7996,-0.8013,-0.8015,-0.8013,-0.8019,-0.8015,-0.802,-0.8022,-0.8023,-0.8028,-0.8037,-0.8043,-0.8052,-0.8072,-0.8073,-0.8081,-0.8084,-0.8087,-0.8089,-0.8099,-0.8103,-0.8063,-0.8063,-0.8063,0,0,-0.7998,-0.8,-0.8006,-0.8016,-0.8019,-0.8029,-0.8015,-0.8026,-0.8034,-0.8023,-0.8038,-0.804,-0.8045,-0.8063,-0.8071,-0.8065,-0.81,-0.8089,-0.8091,-0.8092,-0.8101,-0.8105,-0.8108,-0.8064,-0.8064,-0.8063,0,0,-0.8025,-0.8028,-0.8041,-0.8044,-0.8048,-0.8047,-0.805,-0.8053,-0.8054,-0.8068,-0.8061,-0.8069,-0.8085,-0.8089,-0.8093,-0.812,-0.8114,-0.8123,-0.8139,-0.8149,-0.8152,-0.8154,-0.8164,-0.8167,-0.8126,-0.8126,-0.8126,0,-0.8039,-0.8054,-0.8049,-0.806,-0.8065,-0.8055,-0.8069,-0.8072,-0.8079,-0.8083,-0.8076,-0.8095,-0.8098,-0.8116,-0.8123,-0.8127,-0.813,-0.8123,-0.8152,-0.8154,-0.8157,-0.8166,-0.8169,-0.8127,-0.8126,-0.8126,-0.8126,0,-0.8071,-0.8081,-0.8091,-0.8098,-0.8103,-0.8116,-0.8113,-0.8119,-0.8115,-0.8115,-0.813,-0.8133,-0.8141,-0.8145,-0.8142,-0.8163,-0.8159,-0.8152,-0.814,-0.8162,-0.817,-0.8173,-0.8128,-0.8128,-0.8127,-0.8127,0,0,-0.8108,-0.8111,-0.8115,-0.8117,-0.8121,-0.8129,-0.8141,-0.8149,-0.8154,-0.8159,-0.8169,-0.8182,-0.8175,-0.818,-0.8177,-0.8186,-0.8207,-0.8178,-0.8178,-0.8182,-0.823,-0.8234,-0.8238,-0.8203,-0.8203,-0.8204,-0.8229,0,-0.8134,-0.8154,-0.815,-0.817,-0.8179,-0.817,-0.8181,-0.8184,-0.8184,-0.8191,-0.8191,-0.82,-0.8191,-0.8194,-0.8202,-0.8202,-0.8216,-0.8201,-0.8212,-0.8212,-0.821,-0.8243,-0.8248,-0.8272,-0.8232,-0.8233,-0.8233,0,-0.8168,-0.8173,-0.8194,-0.8195,-0.8199,-0.8208,-0.8215,-0.8222,-0.8226,-0.8225,-0.823,-0.8225,-0.8237,-0.8225,-0.8241,-0.8231,-0.8235,-0.8236,-0.8237,-0.8237,-0.8224,-0.8244,-0.8279,-0.8282,-0.8238,-0.8238,-0.8237,0,-0.8192,-0.8205,-0.8218,-0.8221,-0.8223,-0.823,-0.8232,-0.8235,-0.8239,-0.8245,-0.8248,-0.8255,-0.8259,-0.8265,-0.8262,-0.8254,-0.8279,-0.8267,-0.8279,-0.8279,-0.8284,-0.8284,-0.832,-0.8288,-0.8288,-0.8288,-0.8288,0,-0.8221,-0.8234,-0.8229,-0.8238,-0.8252,-0.8247,-0.8261,-0.8261,-0.8264,-0.8272,-0.8265,-0.8273,-0.827,-0.8277,-0.8275,-0.8289,-0.8291,-0.8291,-0.829,-0.8291,-0.8291,-0.8293,-0.8291,-0.8289,-0.8288,-0.8288,-0.8288,0,-0.8251,-0.8248,-0.8262,-0.8263,-0.8264,-0.8274,-0.8275,-0.8283,-0.8282,-0.8292,-0.8295,-0.8293,-0.8302,-0.83,-0.831,-0.8308,-0.8325,-0.8323,-0.8324,-0.8323,-0.8334,-0.8333,-0.8373,-0.8378,-0.8343,-0.8344,-0.8344,0,-0.8269,-0.8279,-0.828,-0.8285,-0.8287,-0.8295,-0.8299,-0.8295,-0.83,-0.8305,-0.8312,-0.832,-0.8326,-0.8341,-0.8341,-0.8348,-0.8345,-0.8359,-0.8347,-0.8347,-0.8345,-0.8344,-0.8345,-0.8361,-0.8362,-0.8362,-0.8362,0,-0.8302,-0.83,-0.8307,-0.8313,-0.8318,-0.8323,-0.8327,-0.8331,-0.8327,-0.8333,-0.8342,-0.8346,-0.8356,-0.8364,-0.8371,-0.8372,-0.8367,-0.8366,-0.8369,-0.837,-0.837,-0.837,-0.833,-0.8365,-0.8365,-0.8365,-0.8365,-0.8365,-0.8326,-0.8334,-0.8336,-0.8344,-0.8346,-0.835,-0.8357,-0.8356,-0.8363,-0.837,-0.8367,-0.8377,-0.838,-0.8389,-0.8391,-0.8399,-0.8394,-0.8398,-0.8399,-0.84,-0.8401,-0.8369,-0.84,-0.84,-0.84,-0.84,-0.84,0,-0.8359,-0.8359,-0.8366,-0.8371,-0.8377,-0.8371,-0.8375,-0.838,-0.8388,-0.8392,-0.8398,-0.8407,-0.8415,-0.8415,-0.8422,-0.8428,-0.8426,-0.843,-0.843,-0.843,-0.8406,-0.8402,-0.8432,-0.8432,-0.8432,-0.8432,-0.8432,-0.8432,-0.8376,-0.8388,-0.8387,-0.84,-0.8401,-0.841,-0.8412,-0.8416,-0.8418,-0.8429,-0.8435,-0.8435,-0.8437,-0.8444,-0.8451,-0.8451,-0.8453,-0.8459,-0.8458,-0.8435,-0.8432,-0.8429,-0.8425,-0.8459,-0.8459,-0.8481,-0.8481,-0.8481]}]]